Regional Weather Roundup
Issued by NWS

Home | Current Version | Previous Version | Graphics & Text | Print | Product List | Glossary On
Versions: 1 2 3 4 5 6 7 8 9 10 11 12 13 14 15 16 17 18 19 20 21 22 23 24 25 26 27 28 29 30 31 32 33 34 35 36 37 38 39 40 41 42 43 44 45 46 47 48 49 50
000
ASUS43 KLOT 162010
RWRIL

ILLINOIS REGIONAL WEATHER ROUNDUP
NATIONAL WEATHER SERVICE CHICAGO/ROMEOVILLE IL
300 PM CDT WED APR 16 2014

NOTE: "FAIR" INDICATES FEW OR NO CLOUDS BELOW 12,000 FEET WITH NO
SIGNIFICANT WEATHER AND/OR OBSTRUCTIONS TO VISIBILITY.

* THESE STATIONS ARE NOT UNDER NWS QUALITY CONTROL. THEY ALSO MAY NOT
  REPORT WEATHER SUCH AS PRECIPITATION OR FOG.

ILZ001-002-007-009-015-016-024-162100-
NORTHWEST ILLINOIS

CITY           SKY/WX    TMP DP  RH WIND       PRES   REMARKS
MOLINE         SUNNY     57  25  29 S25G33    30.02F
STERLING*      SUNNY     55  30  38 S16G25    30.09F
SAVANNA*       MOSUNNY   56  26  31 S31G40    30.06F
$$

ILZ003-004-008-010-011-017-018-162100-
NORTH CENTRAL ILLINOIS

CITY           SKY/WX    TMP DP  RH WIND       PRES   REMARKS
ROCKFORD       CLOUDY    52  28  39 S28G40    30.14F
FREEPORT*      SUNNY     54  33  44 SE29G38   30.10F
ROCHELLE*      SUNNY     51  32  47 S25G38    30.12F
DE KALB*       FAIR      49  29  47 S28G37    30.15F
PERU*          SUNNY     54  30  40 S25G35    30.13F
$$

ILZ005-006-012>014-019>023-162100-
NORTHEAST ILLINOIS

CITY           SKY/WX    TMP DP  RH WIND       PRES   REMARKS
CHICAGO-OHARE  PTSUNNY   51  25  36 SE24G32   30.19F
CHICAGO-MIDWAY PTSUNNY   51  25  36 S21G30    30.20F
AURORA         MOSUNNY   52  28  39 S29G37    30.16F
LANSING*       PTSUNNY   49  24  37 S20G25    30.23F
WAUKEGAN       MOSUNNY   44  27  51 SE23G31   30.19F
DUPAGE AIRPORT MOSUNNY   52  26  36 S22G33    30.16F
KANKAKEE*      MOSUNNY   52  28  39 SE18G28   30.21F
WHEELING       MOSUNNY   51  26  37 SE22G31   30.20F
MORRIS*        MOSUNNY   53  22  30 S21G31    30.17F
ROMEOVILLE*    PTSUNNY   50  25  37 S22G30    30.18F
NORTHERLY ISL    N/A     48  30  50 SE23        N/A
$$

LMZ740>746-162100-
SOUTHERN LAKE MICHIGAN

STATION/POSITION SKY/WX   TEMP    WIND        PRES    VSBY  WAVE
                          AIR SEA DIR/SP/G                  HT/PER
                          (F)     (DEG/KT/KT) (MB)    (MI)  (FT/S)
WAUKEGAN HARBOR            40     140/ 21/ 24 1023.7F
HARRISON CRIB              44     160/ 19/ 24   N/A
BURNHAM HARBOR             48     120/ 16/ 22   N/A
CALUMET HARBOR             47     150/ 17/ 23 1024.0F
MICHIGAN CITY              46     120/ 17/ 26   N/A
$$

ILZ025>027-034>036-040-047-049-050-058-095>099-162100-
WEST-CENTRAL ILLINOIS

CITY           SKY/WX    TMP DP  RH WIND       PRES   REMARKS
QUINCY         SUNNY     57  27  31 SE23G35   30.02F
GALESBURG*     SUNNY     55  30  37 SE20G32   30.05F
MACOMB*        SUNNY     56  27  32 S29G35    30.07F
JACKSONVILLE*  SUNNY     55  29  36 SE23G32   30.12F
PITTSFIELD*    SUNNY     58  26  29 S23G32    30.08F
$$

ILZ028>032-037-038-041>044-048-051>054-059>061-162100-
CENTRAL ILLINOIS

CITY           SKY/WX    TMP DP  RH WIND       PRES   REMARKS
PONTIAC        SUNNY     54  30  40 S22G31    30.16F
BLOOMINGTON    SUNNY     54  26  34 S29G36    30.15F
DECATUR        SUNNY     53  27  36 S22G29    30.18F
PEORIA         SUNNY     55  28  35 S24G36    30.11F
LACON*         SUNNY     54  28  36 S23G31    30.11F
LINCOLN*       SUNNY     54  28  36 S20G32    30.14F
SPRINGFIELD    SUNNY     55  29  36 SE20G31   30.15F
TAYLORVILLE    SUNNY     52  30  43 S16G25    30.16F
$$

ILZ033-039-045-046-055>057-062-063-162100-
EAST-CENTRAL ILLINOIS

CITY           SKY/WX    TMP DP  RH WIND       PRES   REMARKS
CHAMPAIGN      SUNNY     53  26  35 S21G26    30.20F
RANTOUL*       SUNNY     53  26  35 SE20G28   30.21F
PARIS*         SUNNY     51  29  42 SE16G22   30.24F
$$

ILZ079-100>102-162100-
SOUTHWEST ILLINOIS

CITY           SKY/WX    TMP DP  RH WIND       PRES   REMARKS
ALTON          MOSUNNY   54  23  30 SE22G28   30.14F
BELLEVILLE     MOSUNNY   56  29  35 SE20G25   30.15F
CAHOKIA*       MOSUNNY   55  30  38 SE17G26   30.14F
SPARTA*        MOSUNNY   54  27  35 S13G20    30.18F
$$

ILZ064>066-069>071-074>076-080>082-084>086-088>090-092>094-162100-
SOUTH-CENTRAL ILLINOIS

CITY           SKY/WX    TMP DP  RH WIND       PRES   REMARKS
CARBONDALE     MOSUNNY   55  23  28 SE9G18    30.19F
CAIRO*         MOSUNNY   57  25  28 SE9       30.20F
MARION         PTSUNNY   57  19  23 SE14      30.20F
MT. VERNON     MOSUNNY   54  27  35 SE13G20   30.22F
CENTRALIA*       N/A     53  26  34 SE13G21   30.20F
SALEM*         MOSUNNY   53  30  41 SE10G18   30.21F
METROPOLIS*    MOSUNNY   55  21  27 E10G21    30.20F
$$

ILZ067-068-072-073-078-083-087-091-162100-
SOUTHEAST ILLINOIS

CITY           SKY/WX    TMP DP  RH WIND       PRES   REMARKS
FAIRFIELD*     SUNNY     54  27  35 SE14G22   30.22F
HARRISBURG*    SUNNY     54  31  42 E15       30.23F
ROBINSON*      SUNNY     53  31  42 SE10G17   30.26F
CARMI*         SUNNY     53  32  45 SE12G21   30.24F
$$

ABBREVIATIONS USED IN REMARKS
   TC - TEMPERATURE IN CELSIUS
  WCI - WIND CHILL INDEX
   HX - HEAT INDEX
  VSB - VISIBILITY
$$




USA.gov is the U.S. government's official web portal to all federal, state and local government web resources and services.